Overview Statistics Trail Chart Weather Telemetry Raw packets
 

This is the latest recevied weather packets stored in our database for station/object N5CSU. If no packets are shown the sender has not sent any weather packets the latest 10 day(s).

<< 82 83 84 85 86 87 88 >>
Time Temp. Humidity Pressure Rain* Wind** Luminosity Snow
1788019792 34.44° C 47% 1018.3 hPa 0 mm - 426 W/m² -
1788019486 33.89° C 49% 1018.5 hPa 0 mm - 414 W/m² -
1788019184 33.89° C 51% 1018.5 hPa 0 mm - 402 W/m² -
1788018879 33.33° C 50% 1018.5 hPa 0 mm - 389 W/m² -
1788018574 32.78° C 53% 1018.5 hPa 0 mm - 383 W/m² -
1788018272 32.78° C 56% 1018.2 hPa 0 mm - 22 W/m² -
1788017964 32.78° C 57% 1018.3 hPa 0 mm - 21 W/m² -
1788017660 32.22° C 58% 1018.1 hPa 0 mm - 20 W/m² -
1788017356 32.22° C 58% 1018.2 hPa 0 mm - 20 W/m² -
1788017055 31.67° C 59% 1018.2 hPa 0 mm - 19 W/m² -
1788016751 31.67° C 60% 1018.4 hPa 0 mm - 19 W/m² -
1788016449 31.11° C 61% 1018.5 hPa 0 mm - 19 W/m² -
1788016143 31.11° C 61% 1018.2 hPa 0 mm - 18 W/m² -
1788015842 30.56° C 61% 1018.3 hPa 0 mm - 18 W/m² -
1788015537 30.56° C 64% 1018.4 hPa 0 mm - 18 W/m² -
1788015232 30° C 64% 1018.6 hPa 0 mm - 17 W/m² -
1788014931 30° C 65% 1018.5 hPa 0 mm - 17 W/m² -
1788014631 30° C 64% 1018.3 hPa 0 mm - 17 W/m² -
1788014326 29.44° C 66% 1018.5 hPa 0 mm - 16 W/m² -
1788014022 29.44° C 66% 1018.2 hPa 0 mm - 16 W/m² -
1788013721 28.89° C 68% 1018.4 hPa 0 mm - 15 W/m² -
1788013416 28.89° C 67% 1018.4 hPa 0 mm - 15 W/m² -
1788013115 28.89° C 68% 1018.4 hPa 0 mm - 14 W/m² -
1788012815 28.33° C 70% 1018.3 hPa 0 mm - 14 W/m² -
1788012510 28.33° C 71% 1018.3 hPa 0 mm - 13 W/m² -

* Rain latest hour (hover to see other rain measurements)
** Current wind speed in m/s (hover to see current wind gust speed)